STARLINK-34759 (65096 NORAD) Tracking and Keplerian Element Data

This shows tracking and keplerian element data for the satellite.

Feedback or suggestion? Click here.




ElementValue
Catalog65096
NameSTARLINK-34759
Epoch Orbit2125
Epoch Day353.83857391
Epoch Year2025
RAAN37.6025
Inclination53.1593
Eccentricity0.0001407
Argument of Perigee85.225
Mean Anonmoly274.8911
Mean Motion15.30195101
Decay Rate0.000174
L11 65096U 25167U 25353.83857391 .00017400 00000+0 59830-3 0 9998
L22 65096 53.1593 37.6025 0001407 85.2250 274.8911 15.30195101 21259



Live tracking and technical data element details for STARLINK-34759 (NORAD 65096). STARLINK-34759 can be tracked NOW for your location showing map with azimuth and elevation plus other details from your city location.







IsCatalogInMostPopularTable: catalog: 65096, numindb: 7
Update: records affected: 1



GetName: 65096 STARLINK-34759

Hit Count: updated at: Mon, 20 Apr 2026 10:19:11 GMT